Puerto Plata, Dominican Republic

6:42 AM AST on November 12, 2019 (GMT -0400)
Gregorio Luperon International

Weather History for MDPP - October, 2019

Change the Weather History Date:

Monday, October 21, 2019

  Actual Average Record
Temperature  
Mean Temperature 82 °F -  
Max Temperature 92 °F 85 °F 93 °F (2015)
Min Temperature 73 °F 72 °F 71 °F (2012)
Cooling Degree Days 18    
Growing Degree Days 32 (Base 50)    
Moisture  
Dew Point 76 °F    
Average Humidity 81    
Maximum Humidity 100    
Minimum Humidity 61    
Precipitation  
Precipitation 0.02 in - - ()
Sea Level Pressure  
Sea Level Pressure 29.96 in    
Wind  
Wind Speed 4 mph ()    
Max Wind Speed 18 mph    
Max Gust Speed -    
Visibility 7.2 miles    
Events      
Averages and records for this station are not official NWS values.
T = Trace of Precipitation, MM = Missing Value Source: Averaged Metar Reports

Daily Weather History Graph

Daily Weather History Graph

Search for Another Location

Airport or City:

Astronomy

Oct. 21, 2019 Rise Set
Actual Time 6:38 AM AST 6:14 PM AST
Civil Twilight 6:16 AM AST 6:36 PM AST
Nautical Twilight 5:50 AM AST 7:02 PM AST
Astronomical Twilight 5:25 AM AST 7:28 PM AST
Moon No Moon Rise 1:27 PM AST (10/21)
Length of Visible Light 12h 20m
Length of Day
11h 35m
Waning Gibbous, 48% of the Moon is Illuminated
Oct 21
Waning Gibbous
Oct 27
New
Nov 4
First Quarter
Nov 12
Full
Nov 19
Last Quarter

Hourly Weather History & Observations

Time (AST) Temp. Heat Index Dew Point Humidity Pressure Visibility Wind Dir Wind Speed Gust Speed Precip Events Conditions
2:00 AM 78 °F - 75 °F 86% 29.96 in 10 mi Calm Calm - -   Scattered Clouds
2:00 AM 78.8 °F - 75.2 °F 89% 29.95 in 6.2 mi Calm Calm - N/A   Partly Cloudy
5:00 AM 76 °F - 75 °F 96% 29.94 in 10 mi Calm Calm - -   Scattered Clouds
5:00 AM 75.2 °F - 75.2 °F 100% 29.92 in 6.2 mi Calm Calm - N/A   Partly Cloudy
7:00 AM 73.4 °F - 73.4 °F 100% 29.95 in 6.2 mi Calm Calm - N/A   Partly Cloudy
8:00 AM 77 °F - 76 °F 94% 29.99 in 10 mi Calm Calm - -   Scattered Clouds
8:00 AM 77.0 °F - 75.2 °F 94% 29.98 in 6.2 mi Calm Calm - N/A   Partly Cloudy
9:00 AM 86.0 °F 95.1 °F 75.2 °F 70% 29.98 in 6.2 mi East 9.2 mph - N/A   Partly Cloudy
10:00 AM 89.6 °F 102.2 °F 77.0 °F 66% 29.98 in 6.2 mi East 11.5 mph - N/A   Scattered Clouds
11:00 AM 84 °F - 76 °F 70% 29.92 in 10 mi East 11.2 mph - -   Partly Cloudy
11:00 AM 87.8 °F 97.6 °F 75.2 °F 66% 29.98 in 6.2 mi NE 9.2 mph - N/A   Mostly Cloudy
12:00 PM 87.8 °F 99.7 °F 77.0 °F 70% 29.98 in 6.2 mi ENE 18.4 mph - N/A   Mostly Cloudy
1:00 PM 89.6 °F 102.2 °F 77.0 °F 66% 29.98 in 6.2 mi East 17.3 mph - N/A   Scattered Clouds
2:00 PM 89.6 °F 104.7 °F 78.8 °F 70% 29.95 in 6.2 mi ENE 17.3 mph - N/A   Scattered Clouds
4:00 PM 89.6 °F 99.8 °F 75.2 °F 62% 29.92 in 6.2 mi ENE 11.5 mph - N/A   Partly Cloudy
5:00 PM 88 °F - 76 °F 61% 29.93 in 10 mi East 11.2 mph - -   Scattered Clouds
5:00 PM 87.8 °F 99.7 °F 77.0 °F 70% 29.92 in 6.2 mi East 11.5 mph - N/A   Partly Cloudy
6:00 PM 86.0 °F 96.9 °F 77.0 °F 74% 29.92 in 6.2 mi East 11.5 mph - N/A   Partly Cloudy
7:00 PM 82.4 °F 90.9 °F 77.0 °F 84% 29.95 in 6.2 mi East 11.5 mph - N/A   Partly Cloudy
8:00 PM 83 °F - 78 °F 81% 29.96 in 10 mi Calm Calm - -   Scattered Clouds
8:00 PM 82.4 °F 92.4 °F 78.8 °F 89% 29.95 in 6.2 mi Calm Calm - N/A   Partly Cloudy
9:00 PM 80.6 °F 87.1 °F 77.0 °F 89% 29.98 in 6.2 mi Calm Calm - N/A   Partly Cloudy
10:00 PM 78.8 °F - 77.0 °F 94% 29.98 in 5.0 mi Calm Calm - N/A   Scattered Clouds
11:00 PM 77 °F - 74 °F 88% 29.99 in 10 mi Calm Calm - -   Partly Cloudy
11:00 PM 77.0 °F - 73.4 °F 89% 29.98 in 6.2 mi Calm Calm - N/A   Partly Cloudy